METEOR 2-5 DEB

Satellite information

Favourite Embed

Satellite Type and Status

DEBRISIN ORBIT

Key statistics

Satellite METEOR 2-5 DEB at a glance.

Uptime

16845

Days in orbit

Revolutions

≈ 14.3

Per day

Orbit

LEO

Low Earth Orbit

Inclination

81.2

Latest

Satellite identification and parameters

Extended collection of information and parameters for METEOR 2-5 DEB.

Object identification

Identified? True

Debris? True

Object name: METEOR 2-5 DEB

International designator: 1979-095CM

Object number (NORAD): 40214

Object ID (CCSDS): 40214

Country: COMMONWEALTH OF INDEPENDENT STATES (CIS)

Current information (Y/N): Y

RCS size: SMALL

Orbital parameters

Period: 100.552 minutes

Inclination: 81.2047 deg

SMA: 7162.873 km

Apoapsis: 793.256 km

Periapsis: 776.221 km

RAAN: 347.836 deg

Eccentricy: 0.00118912

Argument of periapsis: 234.9275 deg

Mean anomaly: 125.0794 deg

Mean motion: 14.32095102 rev/day

Mean motion (dot): 0.00010291 rev/day2

B* drag term: 0.0038184211 1/REarth

Two-line elements (TLE)

Creation date: Dec. 10, 2025, 10:40 a.m.

Reference frame: TEME

Reference center: EARTH

Epoch: Dec. 9, 2025, 6:24 p.m. UTC

TLE line 0: 0 METEOR 2-5 DEB

TLE line 1: 1 40214U 79095CM 25343.76690320 .00010291 00000-0 38184-2 0 9990

TLE line 2: 2 40214 81.2047 347.8360 0011891 234.9275 125.0794 14.32095102579947

Live tracking on map

Real-time ground track for satellite METEOR 2-5 DEB.

In-orbit conjunctions

A list of the most updated potential collisions computed for object METEOR 2-5 DEB.

Target Orbit TCA Probability of collision Miss distance Type
CZ-6A DEB SSO 2025-09-10 02:18:57 0.0001266525 32.0 (m) DEBRIS
RITE TARGET 1 SSO 2025-04-06 20:11:23 0.0008582946 181.0 (m) PAYLOAD
RADARSAT SSO 2025-03-14 16:11:29 0.001121781 107.0 (m) PAYLOAD
CZ-6A DEB SSO 2024-09-13 23:45:43 0.0004439317 43.0 (m) DEBRIS

Associated space launch

Second generation soviet meteorological satellite

METEOR 2-5 DEB was lifted into orbit during the mission ‘Vostok 8A92M | Meteor-2 5’, on board a Vostok 8A92M space rocket.

The launch took place on Oct. 31, 1979, 9:25 a.m. from 43/4 (43R).

For more information about the launch, click the button.

Launch to space Vostok 8A92M | Meteor-2 5
Vostok 8A92M | Meteor-2 5

Agency: N/A

Status: Launch Successful

Launch date: Oct. 31, 1979, 9:25 a.m. UTC

Rocket: Vostok 8A92M

Launch pad: 43/4 (43R)

Location: Plesetsk Cosmodrome, Russian Federation

...

Latest news about this satellite

There are no fresh news available about this satellite. Check back as we update our databases every day.


Newsletter sign-up

Weekly statistics, charts and insights to help you stay on top of the space industry.